Weather History for Hatteras, NC

Change the Weather History Date:

Sunday, April 28, 2013

  Actual Average Record
Temperature  
Mean Temperature 61 °F 63 °F  
Max Temperature 73 °F 69 °F 82 °F (1957)
Min Temperature 48 °F 56 °F 42 °F (1976)
Degree Days  
Heating Degree Days 4 4  
Month to date heating degree days 173 184  
Since 1 July heating degree days 2392 2527  
Cooling Degree Days 0 1  
Month to date cooling degree days 9 19  
Year to date cooling degree days 9 22  
Growing Degree Days 12 (Base 50)    
Moisture  
Dew Point 49 °F    
Average Humidity 60    
Maximum Humidity 72    
Minimum Humidity 47    
Precipitation  
Precipitation T in 0.10 in 2.73 in (1997)
Month to date precipitation 3.37 3.43  
Year to date precipitation 15.32 17.46  
Snow  
Snow 0.00 in - - ()
Month to date snowfall 0.0  
Since 1 July snowfall 0.0  
Snow Depth 0.00 in    
Sea Level Pressure  
Sea Level Pressure 30.23 in    
Wind  
Wind Speed 7 mph (East)    
Max Wind Speed 14 mph    
Max Gust Speed 18 mph    
Visibility 10 miles    
Events Rain    
T = Trace of Precipitation, MM = Missing Value Source: NWS Daily Summary

Daily Weather History Graph

Daily Weather History Graph

Search for Another Location

Airport:

Trip Planner

Search our weather history database for the weather conditions in past years. The results will help you decide how hot, cold, wet, or windy it might be!

Date:

Astronomy

Apr. 28, 2013 Rise Set
Actual Time 6:14 AM EDT 7:46 PM EDT
Civil Twilight 5:47 AM EDT 8:13 PM EDT
Nautical Twilight 5:15 AM EDT 8:45 PM EDT
Astronomical Twilight 4:41 AM EDT 9:19 PM EDT
Moon 11:10 PM EDT (4/28) 8:32 AM EDT (4/28)
Length of Visible Light 14h 25m
Length of Day
13h 31m
Waning Gibbous, 89% of the Moon is Illuminated
Apr 28
Waning Gibbous
May 2
Last Quarter
May 9
New
May 18
First Quarter
May 25
Full

Hourly Weather History & Observations

Time (EDT) Temp. Dew Point Humidity Pressure Visibility Wind Dir Wind Speed Gust Speed Precip Events Conditions
12:51 AM 55.0 °F 39.0 °F 55% 30.31 in 10.0 mi ENE 5.8 mph - N/A   Clear
1:51 AM 54.0 °F 39.0 °F 57% 30.28 in 10.0 mi ENE 4.6 mph - N/A   Clear
2:51 AM 55.0 °F 39.9 °F 57% 30.27 in 10.0 mi ENE 5.8 mph - N/A   Clear
3:51 AM 54.0 °F 37.9 °F 55% 30.27 in 10.0 mi NE 3.5 mph - N/A   Clear
4:51 AM 51.1 °F 39.9 °F 66% 30.25 in 10.0 mi ENE 4.6 mph - N/A   Clear
5:51 AM 54.0 °F 41.0 °F 62% 30.25 in 10.0 mi NE 5.8 mph - N/A   Clear
6:51 AM 55.0 °F 45.0 °F 69% 30.25 in 10.0 mi NE 5.8 mph - N/A   Clear
7:51 AM 57.9 °F 46.9 °F 67% 30.27 in 10.0 mi NE 4.6 mph - N/A   Clear
8:51 AM 64.9 °F 48.0 °F 54% 30.27 in 10.0 mi ENE 9.2 mph - N/A   Clear
9:51 AM 66.9 °F 50.0 °F 54% 30.27 in 10.0 mi East 6.9 mph - N/A   Clear
10:51 AM 69.1 °F 50.0 °F 51% 30.27 in 10.0 mi East 6.9 mph - N/A   Clear
11:51 AM 71.1 °F 50.0 °F 47% 30.26 in 10.0 mi East 10.4 mph 17.3 mph N/A   Clear
12:51 PM 71.1 °F 51.1 °F 49% 30.25 in 10.0 mi East 10.4 mph 16.1 mph N/A   Partly Cloudy
1:51 PM 69.1 °F 52.0 °F 54% 30.24 in 10.0 mi ENE 10.4 mph - N/A   Mostly Cloudy
2:51 PM 71.1 °F 53.1 °F 53% 30.23 in 10.0 mi ENE 8.1 mph - N/A   Partly Cloudy
3:51 PM 72.0 °F 55.0 °F 55% 30.20 in 10.0 mi NE 3.5 mph - N/A   Clear
4:51 PM 71.1 °F 54.0 °F 55% 30.19 in 10.0 mi ESE 4.6 mph - N/A   Scattered Clouds
5:51 PM 66.0 °F 55.0 °F 68% 30.18 in 10.0 mi East 8.1 mph - N/A   Mostly Cloudy
6:51 PM 64.0 °F 55.9 °F 75% 30.16 in 10.0 mi ESE 11.5 mph - 0.00 in Rain Light Rain
7:51 PM 64.0 °F 55.0 °F 73% 30.17 in 10.0 mi SE 3.5 mph - 0.00 in   Overcast
8:51 PM 63.0 °F 54.0 °F 72% 30.17 in 10.0 mi SSE 9.2 mph - N/A   Overcast
9:51 PM 62.1 °F 54.0 °F 75% 30.18 in 10.0 mi SSE 11.5 mph - N/A   Partly Cloudy
10:51 PM 62.1 °F 53.1 °F 72% 30.18 in 10.0 mi SSE 9.2 mph - N/A   Clear
11:51 PM 62.1 °F 53.1 °F 72% 30.17 in 10.0 mi SSE 10.4 mph - N/A   Partly Cloudy